Weather History for Lancaster, OH

Change the Weather History Date:

Wednesday, January 29, 2014

  Actual Average Record
Temperature  
Mean Temperature 2 °F -  
Max Temperature 18 °F 36 °F 68 °F (1947)
Min Temperature -15 °F 18 °F -15 °F (2014)
Degree Days  
Heating Degree Days 64    
Moisture  
Dew Point -7 °F    
Average Humidity 62    
Maximum Humidity 78    
Minimum Humidity 45    
Precipitation  
Precipitation 0.00 in - - ()
Sea Level Pressure  
Sea Level Pressure 30.36 in    
Wind  
Wind Speed 5 mph (SW)    
Max Wind Speed 15 mph    
Max Gust Speed 23 mph    
Visibility 10 miles    
Events      
Averages and records for this station are not official NWS values.
T = Trace of Precipitation, MM = Missing Value Source: NWS Daily Summary

Daily Weather History Graph

Daily Weather History Graph

Search for Another Location

Airport:

Trip Planner

Search our weather history database for the weather conditions in past years. The results will help you decide how hot, cold, wet, or windy it might be!

Date:

Astronomy

Jan. 29, 2014 Rise Set
Actual Time 7:41 AM EST 5:46 PM EST
Civil Twilight 7:12 AM EST 6:15 PM EST
Nautical Twilight 6:40 AM EST 6:47 PM EST
Astronomical Twilight 6:08 AM EST 7:19 PM EST
Moon 6:16 AM EST (1/29) 4:45 PM EST (1/29)
Length of Visible Light 11h 02m
Length of Day
10h 05m
Waning Crescent, 2% of the Moon is Illuminated
Jan 29
Waning Crescent
Jan 30
New
Feb 6
First Quarter
Feb 14
Full
Feb 22
Last Quarter

Hourly Weather History & Observations

Time (EST) Temp. Windchill Dew Point Humidity Pressure Visibility Wind Dir Wind Speed Gust Speed Precip Events Conditions
12:53 AM -15.0 °F -25.0 °F -20.9 °F 75% 30.37 in 10.0 mi SE 3.5 mph - N/A   Clear
1:53 AM -15.0 °F - -20.0 °F 78% 30.37 in 9.0 mi Calm Calm - N/A   Clear
2:53 AM -14.1 °F - -20.9 °F 71% 30.37 in 10.0 mi Calm Calm - N/A   Clear
3:53 AM -14.1 °F - -20.0 °F 75% 30.36 in 10.0 mi Calm Calm - N/A   Clear
4:53 AM -11.0 °F -22.8 °F -16.1 °F 78% 30.35 in 8.0 mi SSW 4.6 mph - N/A   Clear
5:53 AM -2.9 °F -15.0 °F -11.9 °F 65% 30.34 in 10.0 mi SW 5.8 mph - N/A   Clear
6:53 AM -2.9 °F -11.2 °F -11.9 °F 65% 30.36 in 10.0 mi South 3.5 mph - N/A   Clear
7:53 AM -0.9 °F -14.1 °F -9.9 °F 66% 30.36 in 10.0 mi WSW 6.9 mph - N/A   Clear
8:53 AM 1.9 °F -12.9 °F -8.0 °F 63% 30.38 in 10.0 mi WSW 9.2 mph - N/A   Clear
9:53 AM 6.1 °F -7.8 °F -5.1 °F 60% 30.39 in 10.0 mi WSW 9.2 mph - N/A   Clear
10:53 AM 9.0 °F -4.2 °F -4.0 °F 56% 30.40 in 10.0 mi SW 9.2 mph - N/A   Clear
11:53 AM 12.9 °F -2.8 °F -2.0 °F 51% 30.39 in 10.0 mi WSW 15.0 mph - N/A   Clear
12:53 PM 15.1 °F -0.1 °F -0.0 °F 51% 30.36 in 10.0 mi West 15.0 mph 23.0 mph N/A   Clear
1:53 PM 17.1 °F 3.6 °F 1.0 °F 50% 30.35 in 10.0 mi WSW 12.7 mph - N/A   Clear
2:53 PM 18.0 °F 4.2 °F -0.0 °F 45% 30.34 in 10.0 mi WSW 13.8 mph - N/A   Clear
3:53 PM 18.0 °F 5.4 °F 1.0 °F 48% 30.35 in 10.0 mi WSW 11.5 mph - N/A   Clear
4:53 PM 18.0 °F 6.9 °F 1.0 °F 48% 30.36 in 10.0 mi WSW 9.2 mph - N/A   Clear
5:53 PM 16.0 °F 6.3 °F -0.0 °F 49% 30.36 in 10.0 mi SW 6.9 mph - N/A   Clear
6:53 PM 12.9 °F 5.2 °F -0.9 °F 54% 30.36 in 10.0 mi SSW 4.6 mph - N/A   Clear
7:53 PM 10.0 °F 1.8 °F -2.0 °F 58% 30.37 in 10.0 mi South 4.6 mph - N/A   Clear
8:53 PM -0.9 °F -11.0 °F -7.1 °F 75% 30.37 in 10.0 mi South 4.6 mph - N/A   Clear
9:53 PM -0.9 °F -8.9 °F -7.1 °F 75% 30.37 in 10.0 mi South 3.5 mph - N/A   Clear
10:53 PM 3.9 °F -5.3 °F -5.1 °F 66% 30.36 in 10.0 mi South 4.6 mph - N/A   Clear
11:53 PM 10.0 °F 0.4 °F -2.0 °F 58% 30.34 in 10.0 mi South 5.8 mph - N/A   Clear